This is the latest recevied weather packets stored in our database for station/object KQ4PPF. If no packets are shown the sender has not sent any weather packets the latest 10 day(s).
| Time | Temp. | Humidity | Pressure | Rain* | Wind** | Luminosity | Snow |
|---|---|---|---|---|---|---|---|
| 1777595317 | 15° C | 63% | 1012.6 hPa | 0 mm | - | 0 W/m² | - |
| 1777595014 | 15.56° C | 63% | 1012.8 hPa | 0 mm | - | 0 W/m² | - |
| 1777594710 | 15.56° C | 61% | 1012.5 hPa | 0 mm | - | 0 W/m² | - |
| 1777594407 | 16.11° C | 62% | 1012.6 hPa | 0 mm | - | 3 W/m² | - |
| 1777594103 | 16.11° C | 59% | 1012.5 hPa | 0 mm | - | 5 W/m² | - |
| 1777593799 | 16.67° C | 59% | 1012.5 hPa | 0 mm | - | 7 W/m² | - |
| 1777593495 | 16.67° C | 57% | 1012.3 hPa | 0 mm | - | 8 W/m² | - |
| 1777593195 | 16.67° C | 58% | 1012.4 hPa | 0 mm | - | 10 W/m² | - |
| 1777592894 | 17.22° C | 58% | 1012.5 hPa | 0 mm | - | 14 W/m² | - |
| 1777592590 | 17.22° C | 56% | 1012.6 hPa | 0 mm | - | 15 W/m² | - |
| 1777592281 | 17.22° C | 55% | 1012.6 hPa | 0 mm | - | 24 W/m² | - |
| 1777591977 | 17.78° C | 53% | 1012.4 hPa | 0 mm | - | 21 W/m² | - |
| 1777591673 | 17.78° C | 52% | 1012.4 hPa | 0 mm | - | 29 W/m² | - |
| 1777591369 | 17.78° C | 50% | 1012.3 hPa | 0 mm | - | 23 W/m² | - |
| 1777591064 | 18.33° C | 49% | 1012.3 hPa | 0 mm | - | 36 W/m² | - |
| 1777590761 | 18.33° C | 48% | 1012.4 hPa | 0 mm | - | 34 W/m² | - |
| 1777590456 | 18.33° C | 48% | 1012.4 hPa | 0 mm | - | 39 W/m² | - |
| 1777590153 | 18.89° C | 45% | 1012.2 hPa | 0 mm | - | 37 W/m² | - |
| 1777589849 | 18.89° C | 42% | 1012.3 hPa | 0 mm | - | 45 W/m² | - |
| 1777589545 | 18.89° C | 42% | 1012.3 hPa | 0 mm | - | 65 W/m² | - |
| 1777589243 | 18.89° C | 45% | 1012.3 hPa | 0 mm | - | 43 W/m² | - |
| 1777588941 | 18.89° C | 43% | 1012.4 hPa | 0 mm | - | 46 W/m² | - |
| 1777588637 | 18.89° C | 41% | 1012.2 hPa | 0 mm | - | 45 W/m² | - |
| 1777588333 | 18.89° C | 41% | 1012.2 hPa | 0 mm | - | 52 W/m² | - |
| 1777588028 | 18.89° C | 42% | 1012.2 hPa | 0 mm | - | 46 W/m² | - |
* Rain latest hour (hover to see other rain measurements)
** Current wind speed in m/s (hover to see current wind gust speed)